Temp
36 36 36 37 37 36 36 36 37 37 37 36 36 36 37 37 37 37 37 38 38 38 38 39 39 39 40 40 40 40 40 40 40 40 40 40 40 40 41 41 41 41 41 41 41 41 41 41 40 41 41 42 42 43 44 46 47 48 48 48 49 49 49 49 49 49 49 49 49
35 36 36 37 37 36 36 36 36 36 36 36 36 37 37 37 37 37 37 37 38 38 38 39 39 39 39 39 40 40 39 39 39 39 39 39 40 40 41 41 41 41 41 41 41 40 40 40 40 40 41 42 42 43 44 46 47 48 48 48 48 48 48 48 48 49 49 49 49
35 35 36 36 35 35 35 35 35 35 35 36 36 37 37 37 37 37 37 37 38 38 38 38 39 39 39 39 39 39 39 39 39 39 39 39 40 40 40 41 41 41 41 41 41 41 40 40 40 40 41 41 42 43 44 45 47 47 48 48 48 48 48 48 48 48 48 48 48
35 35 35 35 35 34 34 35 35 35 35 36 36 37 37 37 37 37 37 37 38 38 38 38 39 39 39 39 39 39 39 39 39 39 39 39 39 40 40 41 41 41 41 41 41 41 41 41 40 41 41 41 42 42 44 45 46 47 47 47 47 47 48 48 48 48 48 48 47
34 34 35 35 35 34 35 35 34 34 35 36 36 37 37 37 37 37 37 37 37 37 38 38 39 39 39 39 38 38 38 39 39 39 39 39 39 40 40 40 40 41 41 41 42 42 42 41 41 41 41 41 42 43 44 45 46 47 47 47 46 46 47 47 48 48 48 48 47
34 34 34 35 35 35 34 34 34 34 35 35 36 36 36 36 36 36 35 35 36 37 37 38 39 39 39 38 38 38 38 38 38 38 38 39 39 39 40 40 40 41 41 41 42 42 42 41 41 41 41 42 43 44 45 46 47 47 46 45 45 45 46 46 47 47 48 48 47
33 34 34 34 34 34 34 34 34 34 34 35 35 35 34 34 34 35 35 35 36 36 37 38 38 38 37 37 37 37 37 37 37 38 38 38 39 39 40 40 40 40 40 41 41 41 41 41 41 41 42 43 44 45 46 46 47 46 45 44 44 44 45 45 45 46 46 47 47
34 34 34 34 34 33 33 33 33 33 34 34 34 34 33 33 34 34 34 35 35 36 36 37 37 37 37 37 36 37 37 37 37 37 37 38 38 39 39 40 40 40 40 40 41 41 42 42 42 42 42 43 44 45 46 47 47 46 45 43 43 44 44 44 44 45 45 45 45
33 33 33 33 33 33 33 33 33 33 33 33 33 33 33 33 33 34 34 34 35 35 36 36 36 36 37 36 36 36 36 37 36 37 37 37 38 38 39 39 39 39 39 40 40 41 42 42 42 42 43 43 44 45 46 46 46 46 45 43 43 43 43 44 44 44 44 44 44
32 32 32 32 32 32 32 32 32 32 33 33 33 32 32 33 33 33 33 34 35 35 35 35 36 36 36 36 36 36 36 36 36 36 37 37 38 38 38 39 39 38 38 39 40 41 42 43 43 43 43 44 44 45 45 46 46 45 44 43 43 43 43 43 43 43 43 43 43
32 32 32 32 31 32 32 31 32 32 32 32 32 32 31 32 32 33 34 34 34 34 34 35 36 36 36 36 36 36 36 36 36 36 36 36 37 37 38 38 38 38 38 38 39 41 42 43 43 43 44 44 45 45 46 46 45 45 43 42 43 42 42 42 42 43 43 42 42
31 31 31 31 31 31 31 31 31 31 32 31 31 31 31 31 32 33 33 34 33 33 34 35 35 36 36 36 36 36 36 36 36 36 36 36 36 36 37 38 38 38 37 37 38 39 40 41 41 41 42 43 44 45 45 45 45 44 43 43 42 42 41 41 42 42 42 42 42
31 31 31 31 31 30 30 30 30 31 31 31 30 30 30 31 32 32 33 32 32 33 34 35 35 35 35 35 35 35 35 35 36 36 36 36 36 35 36 36 37 37 37 37 37 37 38 38 38 39 39 40 42 42 43 43 43 43 42 42 41 41 41 40 41 41 41 41 41
31 30 30 30 30 30 29 29 30 30 30 30 29 29 30 30 31 32 32 32 32 33 33 34 35 35 35 36 35 35 35 35 35 35 35 35 35 35 35 35 36 36 36 36 36 36 36 36 37 37 37 38 38 39 40 40 40 40 40 40 40 40 40 40 40 40 40 40 40
30 30 30 29 29 29 29 29 29 29 29 29 29 29 29 29 30 31 32 31 32 32 33 33 34 35 36 36 35 35 35 34 34 34 34 34 34 34 34 34 36 36 35 35 35 35 35 35 36 36 36 36 36 37 37 38 38 38 38 38 38 38 38 39 39 39 39 39 39
29 29 29 28 28 28 28 28 29 29 28 28 28 28 28 29 29 30 31 31 31 32 32 32 33 34 35 36 35 35 34 34 34 33 33 33 33 33 33 33 35 35 35 35 35 35 35 35 35 35 35 35 35 35 36 36 36 36 36 36 37 37 37 38 38 38 39 39 38
27 27 27 27 27 27 27 27 27 28 27 27 27 27 28 28 28 29 30 30 31 31 31 31 32 33 34 35 34 34 33 33 33 33 32 32 32 32 32 33 34 35 35 34 34 34 34 34 34 34 34 34 34 34 34 35 35 35 35 35 35 36 36 36 37 37 38 38 38
26 26 26 26 26 26 26 26 26 26 26 26 26 27 27 27 27 27 28 29 30 30 30 30 31 32 33 33 33 33 33 32 32 32 32 31 32 32 32 32 33 34 34 34 34 34 34 34 34 34 34 34 34 34 34 34 34 34 34 34 34 34 35 35 35 36 36 37 38
25 25 25 25 25 25 25 25 25 25 25 25 25 25 26 26 26 26 27 27 29 29 30 30 31 32 33 33 33 33 32 32 31 31 32 32 32 32 32 32 32 33 34 34 34 34 34 34 34 34 33 33 33 33 33 33 33 33 33 33 33 33 33 34 34 35 35 36 37
24 24 24 24 24 24 24 25 25 24 24 25 25 25 25 25 25 25 26 26 28 29 30 30 30 31 32 33 32 32 32 32 32 31 32 32 32 32 32 32 32 33 33 34 33 33 33 33 33 33 33 33 33 33 33 33 33 33 33 33 33 33 33 33 33 34 35 35 37
23 23 23 24 24 24 24 24 24 24 24 24 24 24 24 24 25 25 25 26 28 29 29 29 30 31 32 32 32 32 32 32 32 32 32 32 32 32 32 32 32 32 32 33 33 33 33 33 33 33 33 33 32 32 32 32 32 32 32 32 33 33 33 33 33 33 34 34 35
22 22 23 23 23 24 24 24 24 24 24 24 24 24 24 24 24 24 25 26 27 28 28 29 30 30 31 32 32 32 32 32 32 32 32 32 32 32 32 32 32 31 32 32 33 33 33 33 33 32 32 32 32 32 32 32 32 32 32 32 32 33 33 33 33 33 34 34 35
21 22 22 23 23 23 24 24 24 23 23 23 23 23 23 23 23 24 25 25 26 27 28 29 30 30 31 32 32 32 32 32 32 32 32 32 32 32 32 32 31 31 31 32 33 34 33 32 32 32 32 31 31 31 31 31 31 31 31 31 32 32 33 33 33 33 33 33 34
21 22 22 22 23 23 23 23 23 23 23 23 23 23 23 23 23 23 24 24 25 26 27 28 29 30 31 31 32 32 32 31 31 31 31 32 32 32 32 32 31 31 31 32 34 36 36 33 31 31 31 31 31 31 31 31 30 30 31 31 31 32 32 32 33 33 33 33 33
21 21 21 22 22 22 22 23 22 22 22 22 22 22 22 22 23 23 23 23 24 25 26 28 28 29 30 31 31 32 32 31 31 31 31 31 31 31 31 31 31 32 32 34 37 39 39 37 34 32 31 31 31 31 31 31 31 31 31 31 31 31 31 32 32 33 33 33 33
21 21 21 21 21 22 22 22 22 22 22 22 22 22 22 22 22 22 22 22 23 24 25 27 28 29 30 30 30 31 31 31 31 31 31 31 31 31 31 31 31 31 32 35 38 40 41 40 38 35 32 30 30 30 30 30 31 31 31 31 31 31 31 31 32 32 32 33 33
20 21 21 21 21 22 21 21 22 22 22 22 22 22 22 22 22 22 22 22 22 23 24 26 27 28 29 29 29 30 30 30 31 31 31 30 30 30 31 31 31 31 32 36 39 40 41 41 40 38 35 31 31 30 30 30 31 31 31 31 31 31 31 31 31 32 32 32 33
21 21 21 22 22 22 22 21 21 22 22 22 22 21 22 21 21 21 21 21 22 23 24 25 26 27 28 28 28 29 29 30 30 30 30 30 30 30 30 31 30 31 34 38 40 41 41 41 40 39 37 34 31 31 31 31 31 31 31 31 31 31 31 31 31 31 32 32 32
21 21 22 22 22 23 22 22 22 22 22 22 22 21 21 21 21 21 21 21 21 22 24 25 25 26 26 26 27 28 29 29 30 30 30 30 30 30 30 31 30 32 35 39 41 41 41 40 40 39 38 36 33 31 31 31 31 31 31 31 31 31 31 31 31 31 31 32 32
21 21 22 22 22 22 22 22 22 23 23 23 22 21 21 20 20 20 20 20 21 23 24 24 24 24 24 25 26 27 28 29 30 30 30 30 30 30 30 31 30 31 34 39 40 41 41 40 40 39 38 37 34 32 31 31 31 31 30 30 30 30 31 31 31 31 31 32 32
21 21 22 22 22 22 22 22 23 23 23 23 21 21 20 20 20 20 20 21 22 23 24 24 23 23 23 24 25 26 27 28 29 30 30 30 30 30 30 30 30 32 34 38 39 40 41 40 40 39 38 37 34 32 31 31 31 30 30 30 30 30 30 31 31 31 31 31 31
20 21 22 22 22 22 22 22 22 23 23 22 21 20 20 20 20 20 21 21 23 23 23 23 23 23 23 24 25 26 26 28 28 29 30 30 30 30 30 30 30 32 35 38 39 40 41 40 40 39 38 36 34 31 30 30 30 30 30 30 29 29 30 30 31 31 31 31 31
20 21 22 22 22 22 22 22 22 23 23 22 21 20 20 20 20 20 20 22 23 23 22 22 22 23 23 24 25 25 26 27 28 30 30 30 30 30 30 30 30 32 35 38 39 40 40 40 40 39 38 36 33 31 30 30 30 30 30 29 29 29 29 30 30 31 31 31 32
20 21 21 21 22 22 22 22 22 23 23 21 20 20 19 19 19 19 20 22 23 23 22 22 22 23 24 24 25 25 26 28 28 29 29 30 30 30 30 30 30 32 36 37 38 39 39 40 39 38 37 36 32 30 29 29 29 29 29 29 29 29 30 30 30 30 31 32 32
20 21 21 21 21 21 21 21 23 23 22 20 19 19 19 19 19 19 20 22 23 22 22 22 22 23 24 24 25 26 27 27 28 28 29 29 29 30 29 29 30 32 35 37 38 38 39 39 39 38 36 34 31 29 29 28 28 28 28 28 28 29 29 30 30 31 31 32 32
20 20 20 19 20 20 21 22 23 23 21 19 19 18 18 18 18 19 20 22 22 21 21 21 22 22 23 23 25 26 27 27 28 28 28 29 29 29 29 29 29 31 34 36 37 38 38 38 38 37 35 32 28 27 27 28 28 28 27 27 27 28 28 29 30 31 31 32 33
20 19 19 18 19 19 21 22 23 22 20 18 18 18 18 18 18 19 20 22 21 20 20 21 21 22 23 23 25 26 27 27 28 28 28 29 29 29 29 29 29 30 33 35 37 38 38 38 38 37 34 30 28 27 26 26 27 27 27 27 27 27 27 28 29 30 31 32 34
19 19 18 18 18 19 20 22 22 21 19 18 18 18 18 18 18 19 20 22 20 20 20 20 21 22 23 24 25 26 27 28 28 28 28 28 28 29 29 28 28 29 31 34 36 37 38 39 38 36 33 29 28 27 27 26 26 26 26 26 26 26 27 28 29 29 30 31 36
18 18 18 18 18 18 20 21 21 20 18 18 18 18 18 18 19 19 20 21 20 20 20 21 21 22 23 25 25 26 27 27 28 28 28 28 28 29 30 28 28 29 31 34 35 37 38 39 38 37 34 30 29 28 28 27 26 25 25 25 25 26 26 27 28 29 30 31 36
18 18 18 18 18 18 19 20 20 19 18 18 18 18 18 19 19 19 20 20 19 20 21 21 22 23 24 25 25 26 26 27 27 28 28 28 29 30 30 28 27 28 30 33 35 36 37 39 39 37 34 30 29 29 28 27 26 26 25 25 25 26 26 27 28 29 30 30 33
18 18 18 18 18 18 19 19 19 19 18 18 18 18 19 19 19 19 18 18 19 20 21 22 23 23 24 25 25 25 25 26 27 27 28 29 29 29 29 27 27 27 29 31 34 36 37 38 39 38 34 30 29 29 28 28 27 26 25 25 25 26 27 27 28 29 30 30 30
MSLP
1027.12 1026.88 1026.60 1026.32 1026.08 1025.84 1025.56 1025.28 1025.04 1024.80 1024.56 1024.28 1023.96 1023.60 1023.28 1023.00 1022.68 1022.40 1022.08 1021.80 1021.52 1021.16 1020.84 1020.48 1020.16 1019.76 1019.44 1019.12 1018.80 1018.44 1018.12 1017.76 1017.44 1017.16 1016.84 1016.48 1016.16 1015.84 1015.48 1015.20 1014.92 1014.64 1014.40 1014.16 1013.92 1013.68 1013.44 1013.28 1013.12 1012.84 1012.52 1012.16 1011.84 1011.44 1011.12 1010.80 1010.40 1010.00 1009.72 1009.44 1009.24 1009.00 1008.84 1008.64 1008.40 1008.24 1008.16 1008.12 1008.00
1027.16 1026.96 1026.72 1026.44 1026.20 1025.96 1025.72 1025.40 1025.12 1024.88 1024.68 1024.40 1024.04 1023.72 1023.40 1023.08 1022.76 1022.44 1022.16 1021.88 1021.60 1021.28 1020.92 1020.52 1020.16 1019.80 1019.44 1019.08 1018.76 1018.44 1018.12 1017.72 1017.36 1017.00 1016.68 1016.32 1016.00 1015.64 1015.28 1014.96 1014.64 1014.40 1014.16 1013.84 1013.56 1013.36 1013.16 1012.96 1012.76 1012.52 1012.20 1011.88 1011.56 1011.20 1010.84 1010.48 1010.16 1009.80 1009.44 1009.16 1009.00 1008.84 1008.64 1008.44 1008.16 1008.00 1007.88 1007.84 1007.80
1027.28 1027.00 1026.72 1026.48 1026.28 1026.00 1025.76 1025.44 1025.16 1025.00 1024.72 1024.44 1024.08 1023.72 1023.44 1023.16 1022.88 1022.56 1022.28 1022.00 1021.68 1021.32 1021.00 1020.56 1020.16 1019.76 1019.44 1019.08 1018.76 1018.48 1018.16 1017.76 1017.36 1017.00 1016.56 1016.16 1015.80 1015.44 1015.12 1014.76 1014.44 1014.16 1013.84 1013.56 1013.28 1013.04 1012.84 1012.60 1012.44 1012.20 1011.88 1011.56 1011.28 1010.92 1010.56 1010.16 1009.88 1009.56 1009.28 1009.00 1008.84 1008.68 1008.44 1008.24 1007.96 1007.76 1007.68 1007.56 1007.56
1027.36 1027.12 1026.84 1026.56 1026.28 1026.12 1025.88 1025.60 1025.32 1025.08 1024.80 1024.44 1024.08 1023.72 1023.44 1023.24 1023.00 1022.72 1022.40 1022.04 1021.68 1021.32 1020.96 1020.56 1020.16 1019.80 1019.44 1019.12 1018.80 1018.48 1018.16 1017.80 1017.40 1016.96 1016.56 1016.12 1015.72 1015.32 1014.96 1014.60 1014.24 1013.88 1013.52 1013.24 1012.92 1012.68 1012.44 1012.28 1012.12 1011.84 1011.56 1011.28 1011.00 1010.68 1010.32 1009.96 1009.64 1009.32 1009.04 1008.84 1008.72 1008.56 1008.36 1008.12 1007.84 1007.60 1007.44 1007.36 1007.40
1027.44 1027.20 1026.96 1026.68 1026.44 1026.24 1026.00 1025.76 1025.48 1025.20 1024.84 1024.48 1024.12 1023.80 1023.56 1023.32 1023.08 1022.80 1022.48 1022.12 1021.72 1021.36 1021.00 1020.60 1020.20 1019.84 1019.52 1019.16 1018.84 1018.48 1018.12 1017.72 1017.32 1016.92 1016.52 1016.08 1015.64 1015.24 1014.84 1014.44 1014.12 1013.72 1013.28 1012.92 1012.60 1012.28 1012.04 1011.88 1011.72 1011.44 1011.20 1010.96 1010.68 1010.36 1010.00 1009.68 1009.40 1009.08 1008.84 1008.68 1008.56 1008.48 1008.28 1008.04 1007.80 1007.52 1007.32 1007.24 1007.28
1027.52 1027.28 1027.00 1026.76 1026.56 1026.32 1026.12 1025.84 1025.60 1025.32 1025.00 1024.56 1024.20 1023.92 1023.72 1023.48 1023.20 1022.88 1022.56 1022.16 1021.76 1021.40 1021.00 1020.56 1020.20 1019.84 1019.48 1019.16 1018.84 1018.44 1018.08 1017.72 1017.32 1016.96 1016.56 1016.08 1015.60 1015.16 1014.76 1014.36 1013.96 1013.56 1013.16 1012.72 1012.28 1011.96 1011.68 1011.44 1011.24 1011.00 1010.80 1010.56 1010.28 1010.00 1009.68 1009.40 1009.08 1008.84 1008.64 1008.52 1008.44 1008.32 1008.24 1008.04 1007.84 1007.56 1007.40 1007.28 1007.28
1027.68 1027.44 1027.16 1026.88 1026.68 1026.44 1026.20 1025.96 1025.72 1025.44 1025.04 1024.64 1024.32 1024.04 1023.84 1023.60 1023.32 1023.00 1022.60 1022.24 1021.84 1021.40 1021.00 1020.56 1020.20 1019.84 1019.56 1019.16 1018.84 1018.48 1018.12 1017.72 1017.32 1016.96 1016.56 1016.08 1015.64 1015.20 1014.72 1014.28 1013.88 1013.44 1013.00 1012.56 1012.12 1011.64 1011.28 1011.04 1010.84 1010.60 1010.40 1010.20 1009.92 1009.60 1009.32 1009.08 1008.84 1008.64 1008.48 1008.40 1008.28 1008.20 1008.16 1008.04 1007.88 1007.72 1007.56 1007.44 1007.32
1027.80 1027.56 1027.28 1027.04 1026.80 1026.56 1026.32 1026.04 1025.80 1025.44 1025.12 1024.72 1024.44 1024.16 1023.96 1023.68 1023.36 1023.00 1022.60 1022.20 1021.80 1021.44 1021.00 1020.60 1020.28 1019.92 1019.60 1019.24 1018.88 1018.56 1018.16 1017.76 1017.36 1016.96 1016.56 1016.16 1015.68 1015.20 1014.72 1014.28 1013.84 1013.40 1012.92 1012.44 1011.92 1011.40 1010.92 1010.60 1010.40 1010.20 1010.00 1009.84 1009.60 1009.32 1009.00 1008.80 1008.60 1008.44 1008.32 1008.28 1008.16 1008.12 1008.04 1008.00 1007.92 1007.80 1007.68 1007.56 1007.48
1027.84 1027.56 1027.36 1027.12 1026.92 1026.68 1026.44 1026.16 1025.84 1025.52 1025.16 1024.84 1024.56 1024.32 1024.08 1023.76 1023.44 1023.00 1022.64 1022.24 1021.84 1021.48 1021.12 1020.68 1020.28 1019.92 1019.60 1019.28 1018.92 1018.56 1018.24 1017.84 1017.44 1017.00 1016.56 1016.16 1015.72 1015.20 1014.72 1014.24 1013.84 1013.40 1012.88 1012.40 1011.80 1011.16 1010.60 1010.20 1009.96 1009.80 1009.68 1009.56 1009.32 1009.08 1008.84 1008.64 1008.44 1008.28 1008.16 1008.16 1008.08 1008.00 1008.00 1007.96 1007.92 1007.84 1007.76 1007.64 1007.48
1027.88 1027.68 1027.44 1027.16 1027.00 1026.72 1026.48 1026.16 1025.84 1025.56 1025.24 1024.88 1024.64 1024.44 1024.16 1023.80 1023.44 1023.12 1022.72 1022.32 1021.88 1021.52 1021.16 1020.72 1020.32 1019.92 1019.56 1019.28 1019.00 1018.64 1018.28 1017.92 1017.52 1017.12 1016.68 1016.24 1015.80 1015.28 1014.84 1014.36 1013.96 1013.48 1013.00 1012.52 1011.84 1011.12 1010.44 1010.00 1009.72 1009.56 1009.44 1009.28 1009.08 1008.84 1008.64 1008.44 1008.24 1008.16 1008.08 1008.04 1008.00 1008.00 1008.00 1008.00 1008.00 1007.96 1007.84 1007.72 1007.44
1028.00 1027.76 1027.56 1027.32 1027.12 1026.84 1026.52 1026.16 1025.84 1025.56 1025.24 1024.96 1024.68 1024.44 1024.16 1023.84 1023.52 1023.16 1022.76 1022.36 1021.96 1021.56 1021.16 1020.76 1020.36 1019.96 1019.60 1019.32 1019.00 1018.72 1018.40 1018.04 1017.64 1017.20 1016.80 1016.36 1015.92 1015.44 1015.00 1014.52 1014.16 1013.72 1013.28 1012.72 1012.08 1011.40 1010.76 1010.28 1009.96 1009.68 1009.44 1009.16 1008.92 1008.72 1008.48 1008.24 1008.08 1008.04 1008.04 1008.04 1008.04 1008.08 1008.08 1008.12 1008.08 1008.04 1007.96 1007.80 1007.52
1028.08 1027.88 1027.68 1027.48 1027.20 1026.92 1026.60 1026.28 1025.92 1025.56 1025.28 1025.00 1024.76 1024.48 1024.24 1023.92 1023.56 1023.20 1022.80 1022.40 1022.00 1021.60 1021.20 1020.76 1020.44 1020.04 1019.72 1019.40 1019.12 1018.84 1018.48 1018.16 1017.76 1017.32 1016.92 1016.48 1016.04 1015.60 1015.16 1014.68 1014.28 1013.92 1013.52 1013.00 1012.48 1011.96 1011.48 1011.00 1010.60 1010.20 1009.80 1009.36 1009.00 1008.72 1008.48 1008.28 1008.12 1008.08 1008.08 1008.08 1008.08 1008.08 1008.12 1008.12 1008.08 1008.04 1008.00 1007.96 1007.72
1028.24 1028.00 1027.80 1027.56 1027.32 1027.00 1026.72 1026.36 1026.00 1025.68 1025.36 1025.12 1024.84 1024.56 1024.28 1024.00 1023.68 1023.28 1022.84 1022.44 1022.08 1021.64 1021.20 1020.84 1020.44 1020.12 1019.76 1019.44 1019.16 1018.88 1018.60 1018.24 1017.84 1017.44 1017.04 1016.64 1016.20 1015.80 1015.32 1014.84 1014.48 1014.16 1013.80 1013.36 1012.92 1012.52 1012.12 1011.72 1011.24 1010.80 1010.32 1009.88 1009.48 1009.16 1008.88 1008.64 1008.44 1008.28 1008.24 1008.20 1008.16 1008.16 1008.16 1008.16 1008.12 1008.12 1008.12 1008.16 1008.00
1028.36 1028.16 1027.92 1027.72 1027.44 1027.12 1026.80 1026.48 1026.12 1025.76 1025.48 1025.20 1024.96 1024.72 1024.44 1024.08 1023.72 1023.36 1022.96 1022.56 1022.16 1021.72 1021.32 1020.88 1020.52 1020.16 1019.84 1019.56 1019.28 1019.00 1018.72 1018.36 1018.00 1017.56 1017.16 1016.80 1016.40 1016.00 1015.56 1015.12 1014.68 1014.36 1014.08 1013.72 1013.32 1012.92 1012.52 1012.16 1011.76 1011.32 1010.84 1010.44 1010.08 1009.76 1009.48 1009.20 1008.96 1008.76 1008.64 1008.56 1008.44 1008.36 1008.36 1008.32 1008.28 1008.24 1008.24 1008.28 1008.28
1028.44 1028.28 1028.04 1027.80 1027.56 1027.24 1026.96 1026.64 1026.28 1025.92 1025.64 1025.36 1025.12 1024.84 1024.52 1024.16 1023.84 1023.44 1023.04 1022.68 1022.28 1021.84 1021.44 1021.00 1020.60 1020.20 1019.84 1019.56 1019.36 1019.08 1018.76 1018.44 1018.08 1017.72 1017.28 1016.92 1016.56 1016.16 1015.76 1015.36 1014.88 1014.56 1014.28 1014.04 1013.64 1013.24 1012.84 1012.52 1012.16 1011.80 1011.40 1011.00 1010.68 1010.36 1010.08 1009.84 1009.56 1009.32 1009.12 1008.92 1008.80 1008.72 1008.64 1008.56 1008.52 1008.44 1008.36 1008.40 1008.52
1028.56 1028.36 1028.16 1027.92 1027.68 1027.40 1027.12 1026.84 1026.48 1026.16 1025.84 1025.56 1025.28 1024.96 1024.60 1024.28 1023.96 1023.56 1023.20 1022.80 1022.36 1021.92 1021.52 1021.16 1020.72 1020.28 1019.88 1019.56 1019.40 1019.12 1018.80 1018.48 1018.16 1017.80 1017.44 1017.08 1016.72 1016.36 1016.00 1015.56 1015.16 1014.76 1014.48 1014.28 1013.96 1013.52 1013.12 1012.76 1012.52 1012.24 1011.88 1011.56 1011.24 1010.96 1010.68 1010.44 1010.16 1009.88 1009.64 1009.44 1009.24 1009.08 1009.00 1008.88 1008.80 1008.72 1008.64 1008.68 1008.80
1028.72 1028.52 1028.28 1028.08 1027.80 1027.56 1027.28 1027.00 1026.68 1026.36 1026.04 1025.72 1025.40 1025.04 1024.72 1024.40 1024.04 1023.72 1023.32 1022.96 1022.48 1022.04 1021.60 1021.24 1020.80 1020.36 1019.96 1019.64 1019.40 1019.16 1018.84 1018.52 1018.24 1017.92 1017.60 1017.28 1016.92 1016.56 1016.16 1015.84 1015.44 1015.00 1014.72 1014.48 1014.24 1013.84 1013.40 1013.00 1012.76 1012.52 1012.28 1012.00 1011.72 1011.44 1011.16 1010.96 1010.72 1010.48 1010.24 1010.00 1009.72 1009.56 1009.40 1009.28 1009.16 1009.04 1009.00 1009.00 1009.00
1028.92 1028.68 1028.44 1028.16 1027.92 1027.68 1027.40 1027.12 1026.80 1026.48 1026.16 1025.84 1025.52 1025.16 1024.84 1024.48 1024.16 1023.84 1023.44 1023.04 1022.64 1022.16 1021.72 1021.28 1020.84 1020.44 1020.04 1019.72 1019.48 1019.28 1019.00 1018.64 1018.32 1018.00 1017.72 1017.44 1017.08 1016.72 1016.36 1016.00 1015.64 1015.28 1014.92 1014.68 1014.44 1014.16 1013.72 1013.28 1013.00 1012.72 1012.52 1012.28 1012.08 1011.84 1011.60 1011.40 1011.16 1011.00 1010.72 1010.52 1010.24 1010.00 1009.84 1009.72 1009.56 1009.44 1009.28 1009.16 1009.12
1029.12 1028.84 1028.56 1028.28 1028.00 1027.76 1027.48 1027.16 1026.84 1026.56 1026.28 1025.96 1025.64 1025.28 1024.92 1024.56 1024.28 1023.92 1023.52 1023.12 1022.72 1022.28 1021.84 1021.36 1020.88 1020.44 1020.12 1019.80 1019.56 1019.32 1019.04 1018.76 1018.44 1018.08 1017.80 1017.48 1017.16 1016.84 1016.48 1016.12 1015.80 1015.44 1015.16 1014.84 1014.64 1014.40 1014.04 1013.60 1013.28 1012.96 1012.72 1012.56 1012.36 1012.16 1011.96 1011.76 1011.56 1011.36 1011.16 1010.88 1010.64 1010.44 1010.24 1010.08 1009.88 1009.68 1009.48 1009.32 1009.16
1029.28 1029.00 1028.72 1028.44 1028.16 1027.84 1027.56 1027.28 1026.96 1026.68 1026.36 1026.00 1025.72 1025.36 1025.00 1024.64 1024.28 1023.96 1023.56 1023.20 1022.76 1022.32 1021.88 1021.44 1021.00 1020.56 1020.16 1019.84 1019.56 1019.36 1019.16 1018.84 1018.52 1018.16 1017.80 1017.52 1017.20 1016.88 1016.56 1016.16 1015.88 1015.60 1015.32 1015.00 1014.80 1014.56 1014.28 1013.92 1013.56 1013.20 1012.96 1012.76 1012.60 1012.44 1012.28 1012.08 1011.88 1011.68 1011.44 1011.20 1010.96 1010.76 1010.56 1010.36 1010.16 1009.92 1009.72 1009.52 1009.28
1029.44 1029.20 1028.88 1028.56 1028.28 1028.00 1027.68 1027.36 1027.00 1026.72 1026.44 1026.12 1025.76 1025.44 1025.08 1024.72 1024.36 1024.00 1023.72 1023.32 1022.84 1022.44 1022.00 1021.56 1021.12 1020.68 1020.28 1019.88 1019.64 1019.44 1019.16 1018.92 1018.60 1018.28 1017.88 1017.56 1017.20 1016.92 1016.56 1016.28 1016.00 1015.72 1015.44 1015.16 1014.88 1014.68 1014.44 1014.16 1013.84 1013.52 1013.24 1013.00 1012.84 1012.72 1012.56 1012.40 1012.20 1012.00 1011.76 1011.52 1011.28 1011.04 1010.84 1010.60 1010.40 1010.16 1009.96 1009.76 1009.52
1029.60 1029.32 1029.00 1028.68 1028.40 1028.08 1027.72 1027.44 1027.08 1026.76 1026.44 1026.16 1025.80 1025.44 1025.12 1024.72 1024.44 1024.12 1023.76 1023.44 1022.96 1022.52 1022.08 1021.68 1021.28 1020.84 1020.44 1020.04 1019.72 1019.44 1019.20 1018.96 1018.64 1018.32 1018.00 1017.60 1017.28 1016.92 1016.56 1016.28 1015.96 1015.72 1015.48 1015.24 1015.00 1014.72 1014.56 1014.32 1014.08 1013.80 1013.56 1013.28 1013.08 1012.96 1012.80 1012.68 1012.52 1012.28 1012.04 1011.80 1011.56 1011.32 1011.08 1010.88 1010.64 1010.40 1010.20 1010.00 1009.76
1029.72 1029.40 1029.08 1028.76 1028.44 1028.12 1027.76 1027.44 1027.12 1026.76 1026.44 1026.16 1025.80 1025.48 1025.16 1024.84 1024.48 1024.16 1023.80 1023.44 1023.04 1022.60 1022.20 1021.80 1021.40 1021.00 1020.64 1020.24 1019.84 1019.56 1019.28 1019.00 1018.68 1018.32 1018.00 1017.68 1017.32 1016.96 1016.60 1016.28 1015.96 1015.72 1015.52 1015.32 1015.00 1014.72 1014.52 1014.44 1014.20 1014.00 1013.80 1013.56 1013.36 1013.20 1013.08 1012.92 1012.76 1012.56 1012.32 1012.08 1011.84 1011.56 1011.32 1011.12 1010.88 1010.68 1010.48 1010.28 1010.04
1029.72 1029.44 1029.16 1028.84 1028.48 1028.16 1027.80 1027.44 1027.12 1026.76 1026.44 1026.16 1025.84 1025.56 1025.24 1024.92 1024.56 1024.16 1023.80 1023.48 1023.12 1022.72 1022.32 1021.88 1021.52 1021.16 1020.76 1020.36 1020.00 1019.68 1019.36 1019.04 1018.72 1018.40 1018.00 1017.68 1017.36 1017.04 1016.72 1016.36 1016.00 1015.76 1015.56 1015.32 1015.00 1014.56 1014.36 1014.44 1014.32 1014.16 1014.00 1013.80 1013.60 1013.44 1013.32 1013.16 1013.00 1012.76 1012.56 1012.32 1012.04 1011.80 1011.56 1011.32 1011.12 1010.92 1010.72 1010.56 1010.32
1029.80 1029.44 1029.16 1028.84 1028.48 1028.16 1027.80 1027.44 1027.12 1026.80 1026.52 1026.24 1025.92 1025.60 1025.28 1024.96 1024.60 1024.28 1023.92 1023.56 1023.20 1022.84 1022.44 1022.00 1021.64 1021.28 1020.88 1020.48 1020.16 1019.84 1019.52 1019.16 1018.84 1018.52 1018.16 1017.72 1017.40 1017.12 1016.84 1016.52 1016.20 1015.88 1015.56 1015.24 1014.84 1014.40 1014.16 1014.28 1014.28 1014.28 1014.24 1014.04 1013.88 1013.72 1013.52 1013.36 1013.16 1013.00 1012.76 1012.56 1012.28 1012.04 1011.80 1011.56 1011.32 1011.16 1011.00 1010.84 1010.64
1029.80 1029.44 1029.16 1028.80 1028.48 1028.12 1027.76 1027.44 1027.16 1026.84 1026.56 1026.28 1025.96 1025.60 1025.32 1025.04 1024.72 1024.36 1024.00 1023.68 1023.32 1022.96 1022.56 1022.16 1021.76 1021.36 1021.00 1020.64 1020.32 1020.00 1019.64 1019.32 1019.00 1018.68 1018.28 1017.88 1017.52 1017.20 1016.96 1016.72 1016.44 1016.12 1015.72 1015.16 1014.64 1014.28 1014.16 1014.16 1014.24 1014.32 1014.36 1014.24 1014.08 1013.92 1013.72 1013.56 1013.40 1013.20 1013.00 1012.76 1012.52 1012.28 1012.08 1011.84 1011.64 1011.44 1011.28 1011.12 1010.92
1029.80 1029.44 1029.12 1028.76 1028.44 1028.08 1027.76 1027.44 1027.16 1026.88 1026.56 1026.28 1025.96 1025.68 1025.40 1025.12 1024.80 1024.44 1024.12 1023.80 1023.44 1023.08 1022.68 1022.28 1021.88 1021.56 1021.20 1020.84 1020.48 1020.16 1019.80 1019.48 1019.16 1018.84 1018.48 1018.12 1017.72 1017.44 1017.16 1016.92 1016.68 1016.32 1015.84 1015.12 1014.56 1014.32 1014.28 1014.28 1014.28 1014.32 1014.40 1014.40 1014.28 1014.16 1014.00 1013.84 1013.64 1013.44 1013.24 1013.00 1012.84 1012.60 1012.40 1012.16 1012.00 1011.76 1011.56 1011.36 1011.16
1029.84 1029.44 1029.08 1028.72 1028.44 1028.08 1027.76 1027.44 1027.16 1026.88 1026.56 1026.28 1026.04 1025.76 1025.48 1025.16 1024.84 1024.56 1024.20 1023.84 1023.52 1023.16 1022.72 1022.36 1022.00 1021.72 1021.40 1021.04 1020.72 1020.32 1020.00 1019.68 1019.32 1018.96 1018.60 1018.28 1017.88 1017.60 1017.36 1017.16 1016.84 1016.48 1015.96 1015.20 1014.68 1014.44 1014.44 1014.40 1014.32 1014.32 1014.40 1014.44 1014.40 1014.32 1014.24 1014.12 1013.96 1013.76 1013.56 1013.36 1013.16 1012.92 1012.72 1012.56 1012.36 1012.12 1011.84 1011.68 1011.44
1029.84 1029.48 1029.12 1028.72 1028.44 1028.08 1027.76 1027.44 1027.20 1026.92 1026.60 1026.32 1026.12 1025.84 1025.52 1025.20 1024.88 1024.60 1024.28 1023.92 1023.56 1023.20 1022.84 1022.56 1022.24 1021.96 1021.60 1021.28 1020.88 1020.52 1020.16 1019.80 1019.44 1019.12 1018.72 1018.40 1018.00 1017.72 1017.52 1017.28 1017.04 1016.68 1016.12 1015.44 1014.92 1014.68 1014.56 1014.56 1014.52 1014.44 1014.44 1014.48 1014.52 1014.48 1014.44 1014.36 1014.24 1014.04 1013.84 1013.72 1013.48 1013.28 1013.12 1012.84 1012.64 1012.44 1012.20 1011.96 1011.72
1029.88 1029.52 1029.16 1028.76 1028.44 1028.12 1027.80 1027.52 1027.28 1026.96 1026.64 1026.36 1026.16 1025.88 1025.60 1025.28 1024.96 1024.68 1024.36 1024.04 1023.72 1023.36 1023.04 1022.76 1022.48 1022.16 1021.84 1021.44 1021.08 1020.68 1020.28 1019.92 1019.56 1019.24 1018.84 1018.52 1018.20 1017.92 1017.72 1017.44 1017.20 1016.84 1016.32 1015.72 1015.20 1014.84 1014.72 1014.64 1014.60 1014.56 1014.56 1014.60 1014.68 1014.68 1014.64 1014.56 1014.48 1014.32 1014.20 1014.04 1013.84 1013.68 1013.44 1013.16 1012.96 1012.72 1012.52 1012.28 1012.08
1029.92 1029.56 1029.20 1028.84 1028.48 1028.16 1027.84 1027.56 1027.28 1027.00 1026.64 1026.40 1026.20 1025.96 1025.68 1025.40 1025.12 1024.84 1024.52 1024.24 1023.84 1023.48 1023.16 1022.84 1022.56 1022.24 1021.92 1021.56 1021.20 1020.84 1020.44 1020.04 1019.68 1019.32 1019.00 1018.72 1018.40 1018.16 1017.88 1017.60 1017.40 1017.04 1016.56 1016.00 1015.44 1015.04 1014.84 1014.80 1014.72 1014.72 1014.76 1014.80 1014.84 1014.84 1014.84 1014.76 1014.68 1014.60 1014.52 1014.40 1014.20 1014.00 1013.72 1013.48 1013.24 1013.00 1012.80 1012.60 1012.40
1030.00 1029.60 1029.24 1028.84 1028.56 1028.24 1027.92 1027.64 1027.32 1027.00 1026.72 1026.52 1026.28 1026.08 1025.84 1025.56 1025.28 1025.00 1024.68 1024.32 1023.92 1023.52 1023.16 1022.84 1022.60 1022.28 1021.92 1021.56 1021.28 1020.92 1020.56 1020.16 1019.76 1019.44 1019.12 1018.84 1018.60 1018.32 1018.04 1017.76 1017.52 1017.16 1016.72 1016.20 1015.72 1015.28 1015.04 1014.96 1014.88 1014.88 1014.92 1015.00 1015.00 1015.04 1015.00 1014.92 1014.84 1014.80 1014.72 1014.64 1014.48 1014.28 1014.12 1013.84 1013.56 1013.32 1013.12 1012.92 1012.72
1030.00 1029.64 1029.28 1028.96 1028.60 1028.28 1028.00 1027.68 1027.36 1027.04 1026.76 1026.60 1026.44 1026.20 1025.96 1025.64 1025.32 1025.04 1024.72 1024.36 1024.00 1023.64 1023.32 1023.00 1022.72 1022.40 1022.04 1021.72 1021.36 1021.00 1020.64 1020.28 1019.88 1019.56 1019.24 1019.00 1018.72 1018.48 1018.20 1017.92 1017.68 1017.32 1016.88 1016.36 1015.92 1015.56 1015.32 1015.16 1015.12 1015.12 1015.12 1015.16 1015.16 1015.16 1015.12 1015.00 1014.96 1014.88 1014.84 1014.80 1014.68 1014.56 1014.36 1014.20 1013.96 1013.72 1013.44 1013.28 1013.08
1030.04 1029.72 1029.36 1029.04 1028.72 1028.44 1028.08 1027.76 1027.40 1027.08 1026.84 1026.72 1026.56 1026.32 1026.08 1025.76 1025.44 1025.16 1024.80 1024.44 1024.08 1023.76 1023.48 1023.20 1022.88 1022.56 1022.24 1021.88 1021.52 1021.16 1020.76 1020.36 1020.00 1019.68 1019.36 1019.08 1018.84 1018.56 1018.32 1018.12 1017.88 1017.48 1017.00 1016.56 1016.20 1015.84 1015.52 1015.28 1015.28 1015.28 1015.28 1015.28 1015.28 1015.28 1015.20 1015.12 1015.04 1015.00 1014.92 1014.88 1014.80 1014.72 1014.56 1014.44 1014.28 1014.04 1013.84 1013.56 1013.44
1030.08 1029.76 1029.48 1029.16 1028.88 1028.56 1028.16 1027.80 1027.44 1027.16 1027.00 1026.84 1026.68 1026.44 1026.16 1025.88 1025.60 1025.28 1024.96 1024.56 1024.16 1023.84 1023.56 1023.32 1023.00 1022.64 1022.28 1021.92 1021.56 1021.20 1020.84 1020.48 1020.16 1019.80 1019.48 1019.20 1018.96 1018.68 1018.44 1018.28 1018.04 1017.68 1017.20 1016.80 1016.44 1016.04 1015.72 1015.44 1015.40 1015.40 1015.44 1015.44 1015.44 1015.44 1015.28 1015.20 1015.16 1015.08 1015.00 1014.96 1014.84 1014.80 1014.72 1014.56 1014.44 1014.28 1014.08 1013.84 1013.68
1030.16 1029.88 1029.64 1029.36 1029.04 1028.72 1028.28 1027.84 1027.48 1027.28 1027.12 1027.00 1026.80 1026.56 1026.28 1026.00 1025.72 1025.44 1025.08 1024.68 1024.28 1023.96 1023.68 1023.36 1023.00 1022.68 1022.32 1021.96 1021.56 1021.24 1020.92 1020.60 1020.28 1019.92 1019.60 1019.32 1019.04 1018.80 1018.56 1018.36 1018.16 1017.84 1017.44 1017.00 1016.60 1016.24 1015.92 1015.68 1015.48 1015.48 1015.56 1015.64 1015.64 1015.56 1015.44 1015.32 1015.28 1015.16 1015.08 1015.00 1014.92 1014.84 1014.76 1014.64 1014.56 1014.44 1014.24 1014.00 1013.84
1030.28 1030.04 1029.80 1029.52 1029.16 1028.84 1028.44 1028.00 1027.64 1027.44 1027.28 1027.16 1026.96 1026.72 1026.44 1026.16 1025.80 1025.44 1025.16 1024.76 1024.44 1024.08 1023.76 1023.44 1023.08 1022.72 1022.40 1022.04 1021.68 1021.32 1021.00 1020.72 1020.40 1020.08 1019.72 1019.44 1019.16 1018.92 1018.68 1018.48 1018.32 1018.04 1017.68 1017.24 1016.84 1016.44 1016.12 1015.84 1015.68 1015.56 1015.64 1015.76 1015.76 1015.72 1015.60 1015.52 1015.44 1015.36 1015.24 1015.16 1015.04 1014.96 1014.84 1014.72 1014.56 1014.44 1014.28 1014.08 1013.84
1030.44 1030.16 1029.88 1029.60 1029.28 1028.96 1028.56 1028.16 1027.84 1027.60 1027.48 1027.32 1027.08 1026.84 1026.56 1026.28 1025.92 1025.56 1025.24 1024.88 1024.60 1024.28 1023.92 1023.56 1023.16 1022.84 1022.52 1022.20 1021.76 1021.40 1021.08 1020.80 1020.52 1020.20 1019.92 1019.60 1019.36 1019.08 1018.84 1018.68 1018.48 1018.28 1017.96 1017.52 1017.12 1016.68 1016.28 1016.00 1015.72 1015.60 1015.68 1015.88 1015.92 1015.88 1015.84 1015.72 1015.64 1015.56 1015.44 1015.36 1015.24 1015.12 1015.00 1014.84 1014.68 1014.56 1014.40 1014.16 1013.84
1030.48 1030.28 1030.00 1029.72 1029.44 1029.08 1028.72 1028.32 1028.00 1027.84 1027.68 1027.44 1027.20 1026.92 1026.64 1026.32 1026.04 1025.72 1025.40 1025.08 1024.84 1024.52 1024.12 1023.68 1023.28 1022.96 1022.60 1022.24 1021.84 1021.48 1021.16 1020.84 1020.56 1020.32 1020.08 1019.80 1019.52 1019.24 1019.00 1018.88 1018.72 1018.48 1018.16 1017.76 1017.36 1016.96 1016.52 1016.08 1015.72 1015.60 1015.72 1016.00 1016.08 1016.08 1016.00 1015.92 1015.84 1015.76 1015.68 1015.56 1015.44 1015.28 1015.16 1015.04 1014.88 1014.76 1014.56 1014.36 1014.08
1030.56 1030.28 1030.08 1029.80 1029.52 1029.16 1028.84 1028.48 1028.20 1028.00 1027.84 1027.56 1027.32 1027.04 1026.72 1026.44 1026.20 1025.84 1025.56 1025.24 1024.92 1024.56 1024.16 1023.72 1023.36 1023.00 1022.64 1022.28 1021.92 1021.56 1021.28 1020.96 1020.68 1020.44 1020.20 1019.92 1019.68 1019.40 1019.16 1019.08 1018.88 1018.64 1018.32 1018.00 1017.56 1017.16 1016.72 1016.28 1015.88 1015.76 1015.92 1016.20 1016.28 1016.24 1016.16 1016.12 1016.08 1016.00 1015.96 1015.84 1015.72 1015.56 1015.44 1015.32 1015.16 1015.04 1014.84 1014.72 1014.48
1030.60 1030.32 1030.08 1029.84 1029.56 1029.24 1028.88 1028.56 1028.32 1028.12 1027.88 1027.68 1027.44 1027.20 1026.92 1026.64 1026.32 1026.00 1025.68 1025.32 1025.00 1024.60 1024.20 1023.80 1023.40 1023.00 1022.68 1022.32 1022.00 1021.68 1021.40 1021.08 1020.80 1020.56 1020.36 1020.12 1019.84 1019.60 1019.40 1019.24 1019.00 1018.76 1018.48 1018.16 1017.72 1017.32 1016.96 1016.56 1016.16 1016.00 1016.12 1016.40 1016.44 1016.44 1016.40 1016.32 1016.28 1016.28 1016.28 1016.16 1016.08 1015.92 1015.80 1015.64 1015.48 1015.32 1015.16 1015.04 1014.88
Wind_Speed
13 13 12 11 11 10 10 9 10 10 10 10 10 10 10 10 10 10 10 10 10 10 11 11 11 12 14 17 19 19 19 19 20 20 21 21 20 20 19 19 18 17 17 17 16 15 14 13 12 10 10 10 11 11 12 11 12 12 11 10 9 9 10 11 11 10 10 10 8
14 14 13 13 12 11 10 10 10 10 11 10 10 10 10 10 10 10 10 11 10 11 11 11 12 14 16 18 18 18 19 19 20 20 20 20 19 19 19 18 18 18 18 18 17 14 12 12 11 10 9 9 10 11 12 12 12 12 12 12 9 8 8 9 10 10 9 9 8
15 14 14 13 13 12 11 10 11 12 13 12 11 10 10 10 10 10 11 11 12 12 12 11 12 14 16 18 18 18 18 19 20 20 19 18 18 19 19 18 18 19 19 18 16 15 13 12 11 10 10 9 10 11 12 12 12 12 11 11 8 7 7 7 7 7 6 5 6
15 15 14 14 15 15 14 12 13 14 14 12 11 11 10 10 10 10 11 12 13 13 12 12 13 14 15 17 18 19 19 19 20 20 19 18 18 19 19 19 19 19 19 18 17 17 15 14 11 10 10 11 12 12 12 11 12 11 10 8 6 6 6 6 6 5 4 4 5
16 15 15 14 16 16 14 14 15 15 14 12 11 10 10 10 11 11 12 12 12 13 13 15 14 14 15 17 19 19 19 20 20 19 18 18 19 18 18 19 19 19 19 18 18 18 17 15 11 10 10 11 11 11 12 13 13 11 9 6 4 4 5 5 5 4 3 3 4
16 16 16 15 16 16 15 14 16 16 15 13 12 13 12 12 12 13 13 13 13 15 16 17 15 15 16 18 18 18 18 18 18 18 18 19 18 18 19 20 20 20 19 19 19 19 17 15 11 9 9 10 10 11 13 14 12 11 8 5 3 3 3 4 4 4 4 4 5
16 17 17 17 17 17 16 16 16 16 15 13 14 15 16 15 16 17 17 15 14 14 15 14 15 15 16 17 17 17 17 17 17 18 18 18 18 19 20 20 20 21 20 20 20 18 16 13 10 9 9 9 9 11 12 12 11 9 7 4 3 2 2 3 4 5 5 7 7
16 17 17 17 17 18 18 18 17 16 14 13 14 16 18 19 19 19 18 16 14 14 14 13 15 16 17 17 17 17 18 18 18 18 18 18 19 20 20 20 20 21 21 21 20 19 16 12 9 8 8 8 8 9 11 13 12 10 6 3 1 1 2 2 4 5 6 8 8
15 16 17 17 17 18 18 18 18 17 15 15 16 17 18 19 20 19 17 15 14 15 15 14 16 17 18 17 17 17 17 18 18 18 18 19 20 20 20 19 20 21 21 20 20 20 17 12 8 8 8 8 8 9 11 13 13 10 6 1 1 2 3 3 5 6 7 8 8
15 16 17 16 17 18 18 18 17 17 16 16 17 18 18 19 19 18 16 14 15 16 16 15 16 17 17 17 17 17 17 17 17 18 19 19 20 21 20 18 20 21 21 20 19 19 16 11 8 7 8 8 9 11 12 14 12 8 4 1 2 3 4 5 6 7 7 7 8
16 16 17 16 18 18 18 18 16 16 15 16 17 17 17 18 18 17 16 16 16 17 17 17 17 17 16 15 16 16 17 17 17 18 18 19 20 20 20 19 20 21 21 20 19 18 15 12 11 9 9 8 9 10 11 12 8 4 2 2 2 3 4 5 6 6 6 7 7
16 16 17 17 18 18 18 17 15 15 15 16 17 17 17 16 18 18 18 18 18 17 17 17 17 16 15 13 15 16 16 17 18 18 18 19 20 20 20 19 19 20 20 20 18 17 16 17 17 16 15 12 8 7 7 7 3 1 3 3 4 4 4 5 5 5 5 6 6
17 17 17 17 18 18 18 17 15 14 15 17 17 16 16 16 18 18 19 18 18 17 16 16 16 15 14 13 14 15 16 17 18 18 18 19 20 20 20 19 18 18 18 17 17 16 16 18 19 19 18 17 13 11 10 9 6 5 5 6 6 6 6 6 5 5 5 6 6
17 17 17 18 18 18 17 17 15 14 15 17 17 16 16 16 17 17 18 17 17 17 16 16 15 14 13 14 15 16 16 17 18 18 19 19 20 20 20 19 17 16 16 15 15 16 17 18 19 19 19 18 17 16 15 13 11 9 9 8 8 8 7 6 6 6 6 7 7
17 17 18 18 18 17 16 16 14 14 15 17 16 16 15 14 15 16 17 18 18 17 15 15 15 14 14 15 15 16 17 17 17 18 19 19 20 20 20 20 18 16 15 15 14 15 16 17 18 18 19 19 18 17 16 15 13 12 11 10 9 9 8 8 7 7 7 7 7
17 17 18 18 18 17 16 16 14 14 15 16 17 16 15 14 14 15 17 18 17 16 15 17 16 15 14 14 15 16 16 16 17 17 18 18 19 20 20 20 18 16 15 15 14 14 14 15 16 17 18 18 17 17 17 16 15 14 13 12 11 10 9 9 8 8 7 7 6
17 17 18 18 18 18 17 16 14 14 15 16 17 17 15 14 14 15 16 18 16 16 17 18 16 15 13 13 13 14 14 15 15 16 16 17 18 18 19 19 19 17 14 13 13 13 14 14 14 15 16 16 16 16 16 16 15 14 14 13 12 11 10 9 9 8 8 7 7
17 17 18 18 18 18 17 17 16 16 16 17 17 16 16 15 15 15 16 17 17 17 18 19 17 15 13 12 12 12 13 14 14 15 15 16 16 17 17 18 18 17 15 12 12 12 13 13 13 14 14 15 15 15 15 15 14 14 14 13 12 11 11 10 9 8 8 7 7
18 18 18 17 17 17 17 17 17 16 16 16 16 16 16 16 16 16 16 16 17 18 19 19 18 16 14 12 12 12 12 13 14 15 15 15 16 16 17 17 17 17 15 12 11 11 11 11 12 12 13 13 14 14 14 14 13 13 13 12 12 11 11 10 10 9 8 8 8
18 18 18 17 17 17 17 17 16 16 15 15 16 16 17 17 17 17 16 17 18 18 18 18 18 17 15 13 12 13 13 12 14 15 16 15 15 16 16 16 16 16 15 12 10 10 10 10 11 11 12 13 13 14 14 14 13 13 12 11 11 11 10 10 10 10 10 10 9
17 17 17 17 16 16 16 16 16 15 15 15 16 16 17 17 17 17 17 17 18 18 18 18 18 18 17 14 13 13 13 12 13 15 15 15 16 16 16 15 15 14 14 13 10 8 9 9 10 10 11 12 12 13 13 13 13 13 13 11 11 11 11 10 10 10 10 10 10
17 16 16 16 16 16 16 16 15 15 15 15 15 16 17 17 17 17 17 17 18 18 18 17 18 18 18 15 13 13 12 12 13 14 15 15 15 16 16 15 14 14 13 13 11 8 7 8 8 9 9 10 11 12 12 12 12 12 12 12 12 11 11 11 11 11 11 11 11
16 16 16 15 15 16 16 16 15 15 15 15 15 16 17 17 17 17 17 17 17 18 18 16 16 17 18 16 14 13 13 13 14 15 15 15 15 16 16 15 15 14 13 12 11 8 5 5 6 7 8 8 10 10 11 11 11 11 11 12 11 11 11 11 11 11 11 11 10
16 16 15 14 15 16 15 15 15 15 15 15 15 16 16 17 17 17 17 17 17 18 17 15 15 16 17 17 15 14 14 14 15 16 16 16 16 16 16 15 15 14 12 11 14 11 6 4 5 5 6 7 8 8 9 10 10 10 10 11 11 11 11 11 11 11 11 11 10
16 16 15 14 15 15 15 15 15 15 15 14 15 15 16 17 17 17 17 17 17 18 18 17 16 16 16 16 15 15 14 14 15 16 17 17 16 16 15 14 14 13 13 14 20 15 8 9 7 5 5 6 6 7 8 9 9 10 10 11 11 11 11 12 12 12 11 11 11
16 16 15 15 15 15 15 15 15 14 14 14 15 15 16 16 16 16 17 17 17 17 17 16 15 15 15 15 16 16 15 14 14 15 16 16 17 16 15 13 13 12 14 19 20 13 11 15 12 9 6 5 5 6 7 7 9 10 10 11 11 11 11 11 12 12 12 11 11
17 16 16 16 16 16 15 14 14 14 14 15 15 16 16 16 15 16 16 17 17 16 15 14 14 15 15 14 16 16 16 14 14 15 15 16 16 16 15 13 12 13 16 22 16 13 16 16 15 13 9 6 5 6 6 6 8 9 10 10 10 11 11 11 12 12 12 11 11
17 17 17 17 17 17 16 14 14 15 15 15 15 15 15 16 16 16 16 16 16 15 14 13 13 13 12 12 14 16 17 16 15 14 14 15 15 15 14 13 13 16 19 22 16 17 18 17 16 15 12 8 6 5 6 6 7 7 8 9 9 10 11 11 11 11 11 12 11
18 18 18 18 18 17 16 15 15 15 15 14 14 15 15 16 16 16 16 16 16 15 14 12 12 12 12 13 14 15 16 16 15 14 14 15 15 15 14 14 15 18 22 22 17 18 17 17 16 16 14 11 7 5 5 5 6 6 7 7 8 9 10 10 10 10 11 11 11
18 18 18 18 18 17 17 16 16 16 15 13 14 14 15 15 16 16 16 16 16 15 14 13 13 13 14 15 15 15 15 15 14 14 14 15 15 15 15 15 15 18 21 25 18 17 16 16 16 16 15 13 9 6 5 5 6 6 6 7 8 9 10 10 11 11 11 11 11
18 18 18 18 18 18 17 17 16 16 15 13 13 14 15 16 16 16 16 15 15 15 15 15 15 16 16 15 15 15 15 15 14 14 14 14 15 15 15 15 15 17 21 27 21 17 15 16 16 15 15 13 10 7 5 5 6 6 6 7 8 9 10 9 10 11 12 12 11
17 18 18 18 18 18 17 17 16 15 14 13 14 15 16 17 16 15 15 15 15 15 16 16 16 17 17 16 16 15 15 15 15 15 14 14 14 14 14 14 14 17 21 28 24 18 15 15 15 15 14 12 9 7 6 5 5 5 6 7 8 9 9 9 9 10 12 12 11
17 17 18 18 18 18 18 17 16 15 14 14 15 16 17 17 16 15 15 15 15 15 15 16 16 17 16 17 16 16 16 15 15 15 15 15 14 14 14 13 12 16 21 28 26 20 15 14 14 14 13 12 8 6 5 5 5 5 5 6 7 8 9 9 9 9 10 11 10
16 17 18 18 19 18 18 17 16 15 14 14 16 17 17 17 16 16 15 15 15 15 14 14 15 15 15 16 16 16 15 14 14 14 14 14 13 13 13 12 11 16 22 27 27 22 17 13 13 13 12 11 7 6 5 6 5 5 6 6 7 7 8 8 8 8 9 9 8
16 17 18 18 18 18 18 17 16 15 15 15 17 17 17 16 16 15 15 16 16 15 14 14 14 14 15 15 15 15 15 15 15 14 14 14 13 13 13 13 13 17 23 26 27 25 20 13 12 11 10 8 6 5 5 6 6 6 7 7 7 8 8 8 7 7 7 7 7
16 17 18 18 18 18 18 18 16 15 15 16 17 17 17 16 15 15 15 17 16 15 14 14 14 15 15 16 15 15 15 15 15 14 14 14 14 13 13 13 14 18 22 25 26 26 23 15 11 9 8 6 4 4 5 5 5 6 7 7 8 8 8 8 7 7 7 6 6
16 16 17 17 17 18 18 18 17 16 16 16 16 16 16 16 15 15 15 16 15 15 15 15 15 15 16 16 16 15 15 14 14 14 14 14 14 14 13 13 14 16 20 24 25 26 25 21 12 8 6 5 4 4 4 4 4 5 6 7 7 7 7 7 7 7 7 7 7
15 15 16 16 17 17 17 17 17 17 16 16 16 15 15 15 14 14 15 15 14 15 15 15 15 15 16 17 16 15 15 14 14 14 14 14 14 14 14 14 13 15 17 22 24 25 25 24 18 10 6 5 3 3 4 4 4 5 5 6 6 7 7 6 6 7 8 10 11
15 15 15 15 16 16 17 17 17 16 16 16 16 15 15 14 14 14 14 14 14 14 15 15 15 15 16 17 15 15 14 14 13 13 13 13 14 15 15 14 13 14 16 21 23 24 25 25 23 14 8 7 4 3 3 3 4 5 5 5 5 6 6 6 6 6 7 10 13
14 14 15 15 15 15 16 16 16 15 15 15 15 15 15 15 14 14 14 13 13 14 14 14 15 16 16 16 15 14 14 13 13 13 13 14 15 16 17 14 13 14 16 19 22 23 23 24 24 16 10 7 4 3 3 3 4 5 5 5 5 5 6 6 6 6 7 9 11
13 14 14 15 15 15 15 15 15 14 14 14 14 14 14 14 14 14 14 13 14 14 13 13 15 16 16 16 13 13 13 13 13 13 13 14 14 15 15 13 13 13 14 17 20 21 22 23 23 17 11 7 4 3 3 3 4 4 5 5 5 5 5 5 6 6 7 8 8
Wind_Direction
338 337 335 335 335 334 332 328 328 329 328 325 322 320 320 321 322 322 322 323 322 321 320 319 319 318 318 319 320 319 319 318 316 314 313 311 308 306 305 303 301 299 297 295 293 291 288 286 284 281 279 278 278 278 277 276 275 273 271 267 267 265 261 257 254 251 247 243 243
338 336 335 335 335 334 331 329 329 330 328 324 320 319 321 323 324 323 323 323 322 321 319 318 319 319 320 322 323 323 322 320 318 316 313 311 308 307 306 304 302 300 298 295 292 289 285 282 280 279 277 277 276 276 275 274 273 272 272 271 270 267 262 256 251 248 246 244 243
338 337 335 335 336 336 333 331 331 330 328 323 320 321 323 326 326 324 323 322 321 320 319 319 320 322 323 325 326 326 324 322 320 318 315 312 311 310 308 307 305 303 300 297 292 288 283 280 278 276 275 274 275 275 275 275 273 273 273 274 274 273 268 262 255 249 244 242 238
340 337 336 335 336 336 335 333 332 330 328 323 321 322 326 329 327 325 322 321 320 320 320 320 321 324 327 329 328 327 325 324 322 320 317 315 314 312 311 311 310 307 304 300 294 289 283 278 275 272 271 271 273 273 274 273 273 272 272 275 276 277 276 275 270 262 251 243 235
341 339 337 335 336 337 336 334 333 330 328 323 323 326 330 330 328 325 323 322 322 321 321 322 323 325 328 329 328 327 326 325 325 323 321 319 317 316 316 317 316 313 310 305 299 292 285 278 273 269 267 267 268 268 268 269 271 271 271 270 269 274 282 289 292 290 281 261 241
341 339 337 336 338 338 337 335 333 330 327 324 326 329 332 332 329 327 325 323 321 320 320 322 324 326 327 328 328 328 328 327 327 326 324 322 321 320 321 321 320 319 315 310 304 296 288 278 271 266 263 263 263 264 265 266 267 267 266 259 255 267 291 308 316 319 314 297 267
341 339 338 338 339 339 338 336 333 331 328 325 329 332 334 331 329 326 324 322 321 321 322 324 326 327 328 329 329 329 329 329 328 327 327 325 324 324 324 325 325 323 320 316 309 301 291 278 269 263 260 261 263 263 264 264 265 262 256 247 247 270 317 333 335 334 327 313 288
341 340 340 340 340 339 338 336 334 331 330 329 333 334 334 331 329 327 325 323 322 323 324 324 325 326 327 329 330 330 330 330 329 329 329 328 328 327 328 328 329 328 326 321 315 306 295 281 268 259 257 259 261 264 266 268 265 258 247 236 259 316 352 353 350 343 334 324 309
342 342 341 341 341 339 338 336 334 332 331 332 334 334 333 331 330 329 327 324 323 323 323 322 323 325 327 329 331 332 332 332 330 330 331 331 332 331 331 332 334 334 331 327 320 311 301 286 269 257 254 256 260 264 267 269 263 254 240 215 358 3 1 4 356 346 337 331 325
343 343 342 342 341 339 338 336 334 333 332 333 335 334 333 332 331 329 327 324 324 323 323 322 324 326 328 331 333 334 334 332 331 331 332 333 334 334 334 335 339 339 337 334 329 323 317 304 285 268 261 258 260 264 266 266 258 247 225 107 48 23 12 9 359 349 340 336 338
344 344 343 342 341 340 338 337 335 334 334 335 336 335 334 333 331 329 327 326 325 324 323 323 324 326 329 331 334 335 334 333 332 332 332 333 334 335 335 337 341 342 342 341 340 340 339 339 331 317 302 285 273 269 267 265 252 229 160 94 65 43 28 15 5 355 344 340 349
344 344 343 342 341 340 339 338 336 335 336 337 336 335 334 333 331 330 328 328 326 324 323 324 325 327 329 332 334 335 334 333 333 333 333 335 336 336 336 337 342 344 345 347 350 351 351 351 349 345 339 331 320 308 300 293 282 112 90 72 60 49 36 22 15 6 355 348 358
344 343 343 342 342 341 340 339 337 337 337 338 337 336 334 332 332 331 330 329 327 326 325 326 326 327 328 332 334 335 335 334 334 334 335 336 338 338 337 336 342 346 348 349 355 357 357 354 353 352 353 355 356 355 354 353 6 27 41 44 45 43 37 28 25 20 11 359 1
343 343 343 342 342 342 341 340 338 338 338 338 337 335 333 332 332 332 331 330 328 327 326 326 326 326 328 332 335 335 335 334 334 335 336 337 338 339 339 337 341 345 349 350 355 360 2 360 358 358 359 2 4 4 5 6 13 21 28 33 36 36 35 32 32 31 25 12 1
342 342 342 342 342 342 341 340 339 338 338 337 336 334 333 332 332 332 332 330 329 327 327 327 326 326 327 332 335 335 335 334 335 336 337 337 338 339 339 338 340 344 349 350 354 1 6 6 4 3 3 5 5 6 6 8 12 17 23 28 31 32 32 32 34 36 34 25 8
341 341 341 341 341 341 340 339 338 337 337 336 335 334 333 332 332 332 332 331 329 328 328 328 326 325 326 332 335 336 335 335 336 337 337 337 338 338 339 338 339 342 346 349 352 360 7 11 9 8 7 7 7 7 8 8 10 13 18 22 25 27 28 29 31 34 35 32 17
340 340 340 340 339 339 338 337 336 336 335 334 333 333 332 332 331 331 331 331 329 328 328 327 326 325 326 330 334 335 335 334 335 336 337 336 336 337 338 339 338 340 342 347 349 356 5 13 14 12 10 9 8 8 8 9 9 11 13 16 19 21 23 25 27 29 31 30 18
339 339 338 338 337 337 336 334 334 334 333 332 332 332 332 331 331 330 330 329 329 328 328 327 326 325 325 329 333 334 334 333 333 334 335 335 335 336 337 338 338 338 339 343 347 353 0 11 16 16 14 11 9 8 8 8 8 9 10 11 14 16 18 20 21 24 26 24 16
338 337 336 336 335 334 333 333 333 333 332 331 331 331 331 331 331 330 329 329 329 329 329 328 327 326 325 329 332 334 334 332 332 332 333 334 335 336 337 338 339 338 338 339 343 349 356 6 15 18 18 15 11 8 7 6 6 6 6 7 10 12 14 15 18 20 21 19 16
336 336 335 334 333 332 332 332 332 331 330 330 330 331 331 332 332 332 331 330 330 329 329 330 329 328 327 328 332 335 335 333 332 332 333 334 335 336 336 337 338 338 337 335 339 345 352 1 12 19 21 19 15 10 7 5 3 3 3 4 7 9 11 12 15 17 18 17 17
335 333 332 331 331 330 330 330 330 329 329 329 330 331 332 333 334 333 332 330 330 330 330 331 331 330 328 327 331 334 335 333 333 332 333 333 334 335 335 335 337 338 338 335 335 340 349 358 9 17 22 23 18 13 9 5 2 1 1 1 3 5 7 10 13 15 16 15 16
333 331 330 330 329 329 329 329 329 329 329 329 331 333 334 334 334 333 332 331 331 331 331 332 332 332 329 327 329 332 334 334 333 332 332 332 333 334 334 335 336 337 338 337 332 333 343 357 7 16 22 24 20 16 11 6 2 360 359 359 360 2 5 8 11 13 14 13 14
332 331 330 329 328 328 328 329 329 329 330 331 332 334 334 335 334 333 333 333 333 332 332 332 333 332 331 327 327 329 332 334 333 332 332 332 332 333 334 335 336 337 337 335 328 326 336 2 8 15 21 25 22 17 11 5 1 358 357 357 358 0 3 6 9 11 12 11 11
332 331 330 329 329 328 328 329 330 330 331 332 333 334 334 335 335 334 334 335 334 333 332 332 332 333 332 330 329 330 332 334 333 332 331 331 332 334 335 335 335 335 334 330 324 327 344 39 21 18 21 26 24 19 12 5 1 358 357 357 358 360 2 5 8 10 11 11 10
332 331 330 329 328 328 329 330 330 331 331 331 332 333 334 335 335 335 335 335 334 333 332 331 332 333 334 333 332 332 333 334 333 332 331 330 331 334 335 336 335 333 329 324 321 329 5 58 48 36 27 25 26 22 15 7 2 0 359 0 1 1 2 4 6 8 10 11 10
333 332 331 330 329 330 330 331 330 330 330 331 333 334 335 335 335 335 335 335 334 333 332 332 333 335 336 336 335 334 334 334 333 331 330 329 331 333 336 337 336 331 325 320 325 346 38 52 49 46 41 29 27 25 19 10 5 2 2 2 3 4 4 4 4 5 7 9 10
334 334 333 332 332 333 332 331 330 330 331 332 334 334 334 334 334 335 335 335 333 332 332 333 335 336 336 335 335 335 334 333 332 330 329 328 330 333 336 337 336 330 325 324 344 25 51 44 44 45 44 39 32 27 23 14 8 5 4 4 5 5 6 6 4 4 5 7 9
336 335 334 334 335 335 334 333 332 332 332 333 333 333 333 333 334 335 335 335 334 333 334 336 336 336 335 334 334 333 333 332 331 330 329 328 330 334 337 339 337 331 330 338 18 41 45 38 39 41 43 43 37 31 26 20 13 9 7 6 6 5 6 6 6 5 5 6 9
336 335 335 335 335 335 335 335 334 333 332 332 333 333 333 334 335 335 336 335 335 335 336 336 336 335 333 332 331 331 331 331 331 330 329 329 332 335 339 340 338 335 337 350 22 38 39 35 35 38 40 42 38 31 26 24 19 15 11 8 6 6 6 7 8 8 8 8 10
335 335 335 335 335 335 335 335 334 333 332 332 334 335 335 335 336 336 336 336 334 334 334 334 333 332 331 330 330 330 331 330 330 330 330 332 335 337 340 342 340 338 341 351 11 28 36 34 34 36 38 41 38 34 28 27 25 22 17 12 8 6 6 7 9 11 11 10 11
334 334 334 335 335 336 335 334 332 331 331 334 336 337 337 337 337 336 336 334 332 331 332 332 332 331 331 330 330 330 330 329 329 330 332 334 336 338 340 342 341 340 342 348 4 22 35 33 33 35 37 40 36 31 26 27 29 28 23 17 12 8 6 5 8 11 12 12 12
333 334 335 335 336 336 335 333 330 330 332 337 340 340 339 337 336 335 334 332 331 331 332 333 333 332 331 331 331 330 329 328 329 331 333 336 337 338 340 342 342 340 342 346 360 15 30 31 32 34 37 40 36 29 24 25 28 29 26 22 16 12 9 6 6 8 11 13 13
332 334 336 337 336 335 334 332 329 330 335 343 344 342 339 337 336 335 334 333 333 333 333 332 332 332 331 331 330 329 328 328 329 330 332 335 336 338 341 344 342 341 342 345 354 5 21 31 31 32 34 37 33 26 20 21 24 25 24 21 17 14 11 8 6 6 8 12 14
333 335 337 338 337 335 333 330 329 333 341 347 345 343 340 337 336 335 334 333 333 332 331 330 329 329 329 329 329 328 328 328 328 329 331 333 336 340 343 347 343 343 344 346 352 360 13 32 32 33 32 32 27 19 15 18 20 20 18 17 14 12 10 9 6 4 4 9 15
334 337 338 338 336 335 333 330 332 339 346 348 345 342 340 338 336 335 333 332 332 331 329 328 327 327 328 328 328 328 328 328 327 328 330 333 336 340 344 348 344 344 345 347 350 357 7 27 34 36 35 29 18 10 11 16 17 16 14 13 11 8 6 5 5 3 2 5 17
336 338 338 336 335 334 333 331 336 343 349 348 344 341 339 337 336 334 332 332 331 330 328 328 328 329 329 330 329 329 328 327 327 328 330 334 337 340 344 348 345 345 345 347 348 352 359 12 29 43 45 36 15 5 8 14 14 13 12 11 8 4 0 359 2 1 0 1 23
337 337 336 335 334 333 333 333 339 345 348 346 342 340 338 336 334 333 332 333 331 330 328 327 328 329 330 329 328 327 327 326 327 328 331 334 336 339 343 347 345 344 344 345 346 349 353 2 16 41 63 56 25 10 9 12 12 12 11 10 5 0 357 356 358 359 360 360 28
336 336 335 334 333 332 332 335 342 345 345 342 340 338 337 335 334 332 332 333 331 329 327 325 326 327 328 328 326 326 326 326 328 330 332 334 336 339 343 346 344 342 342 343 345 346 348 353 4 29 81 82 51 27 18 15 13 11 9 7 2 359 357 356 357 359 359 360 23
334 334 333 333 332 331 332 336 342 344 343 339 338 337 337 336 334 332 331 331 329 327 324 323 324 325 326 327 327 327 328 328 329 331 333 334 335 340 344 346 342 340 340 341 344 345 346 348 0 23 78 90 71 46 31 25 19 14 10 5 2 359 358 358 359 0 0 359 13
333 333 332 332 330 329 331 336 341 342 340 338 337 337 336 336 333 331 329 328 327 326 324 323 324 325 326 328 329 329 329 329 331 332 334 335 336 340 343 344 340 338 338 340 342 345 346 347 359 20 63 89 73 54 42 34 28 22 14 8 5 4 2 1 2 3 3 1 4
331 332 331 330 328 327 329 335 339 340 338 337 337 336 335 334 331 329 328 327 327 327 326 325 326 326 328 329 329 330 330 331 333 334 335 336 336 339 342 342 338 337 337 339 341 344 347 348 359 18 52 88 73 55 45 40 36 28 20 11 10 10 8 6 7 8 7 4 0